Tracking 33165 objects as of 7-Feb-2026
HD Live streaming from Space Station
objects crossing your sky now

CZ-6A DEB

Track CZ-6A DEB now!
10-day predictions


NORAD ID: 54392
Int'l Code: 2022-151DQ
Perigee: 709.9 km
Apogee: 839.7 km
Inclination: 98.6 °
Period: 100.2 minutes
Semi major axis: 7145 km
RCS: Unknown
Launch date: November 11, 2022
Source: People's Republic of China (PRC)
Launch site: Taiyaun Space Center, China (TSC)

Note: This is SATELLITE DEBRIS
Your satellite tracking list
Your tracking list is empty




NASA's NSSDC Master Catalog

Two Line Element Set (TLE):
1 54392U 22151DQ  26038.62973395  .00001897  00000-0  62170-3 0  9991
2 54392  98.5988  60.6480 0090847  50.3096 310.6057 14.37238451169384
Source of the keplerian elements: AFSPC